Change the Weather History Date:

Saturday, March 15, 2014

  Actual Average Record
Temperature  
Mean Temperature 41 °F 38 °F  
Max Temperature 59 °F 50 °F 76 °F (1994)
Min Temperature 22 °F 25 °F 14 °F (1959)
Degree Days  
Heating Degree Days 24 27  
Month to date heating degree days 362 441  
Since 1 July heating degree days 5888 5961  
Cooling Degree Days 0 0  
Month to date cooling degree days 0 0  
Year to date cooling degree days 0 0  
Moisture  
Dew Point 27 °F    
Average Humidity 63    
Maximum Humidity 92    
Minimum Humidity 33    
Precipitation  
Precipitation 0.00 in 0.03 in 0.31 in (1979)
Month to date precipitation 0.80 0.38  
Year to date precipitation 2.49 1.76  
Sea Level Pressure  
Sea Level Pressure 30.40 in    
Wind  
Wind Speed 8 mph (East)    
Max Wind Speed 18 mph    
Max Gust Speed 23 mph    
Visibility 10 miles    
Events      
T = Trace of Precipitation, MM = Missing Value Source: NWS Daily Summary

Daily Weather History Graph

Daily Weather History Graph

Search for Another Location

Airport or City:

Trip Planner

Search our weather history database for the weather conditions in past years. The results will help you decide how hot, cold, wet, or windy it might be!

Date:

Astronomy

Mar. 15, 2014 Rise Set
Actual Time 7:03 AM PDT 6:57 PM PDT
Civil Twilight 6:34 AM PDT 7:26 PM PDT
Nautical Twilight 6:00 AM PDT 8:00 PM PDT
Astronomical Twilight 5:25 AM PDT 8:35 PM PDT
Moon 6:21 PM PDT (3/15) 6:19 AM PDT (3/15)
Length of Visible Light 12h 52m
Length of Day
11h 53m
Waxing Gibbous, 99% of the Moon is Illuminated
Mar 15
Waxing Gibbous
Mar 16
Full
Mar 23
Last Quarter
Mar 30
New
Apr 7
First Quarter

Hourly Weather History & Observations

Time (PDT) Temp. Windchill Dew Point Humidity Pressure Visibility Wind Dir Wind Speed Gust Speed Precip Events Conditions
12:53 AM 36.0 °F 29.0 °F 26.1 °F 67% 30.32 in 10.0 mi WNW 9.2 mph - N/A   Clear
1:53 AM 30.9 °F 27.5 °F 24.1 °F 76% 30.35 in 10.0 mi WNW 3.5 mph - N/A   Clear
2:53 AM 32.0 °F 26.4 °F 25.0 °F 75% 30.35 in 10.0 mi SW 5.8 mph - N/A   Clear
3:53 AM 25.0 °F 20.7 °F 23.0 °F 92% 30.37 in 10.0 mi South 3.5 mph - N/A   Clear
4:53 AM 25.0 °F - 23.0 °F 92% 30.39 in 10.0 mi Calm Calm - N/A   Clear
5:53 AM 24.1 °F 19.7 °F 21.9 °F 91% 30.42 in 10.0 mi NE 3.5 mph - N/A   Clear
6:53 AM 24.1 °F 19.7 °F 21.0 °F 88% 30.45 in 10.0 mi East 3.5 mph - N/A   Clear
7:53 AM 26.1 °F 20.5 °F 23.0 °F 88% 30.47 in 10.0 mi North 4.6 mph - N/A   Clear
8:53 AM 36.0 °F 33.3 °F 28.0 °F 73% 30.47 in 10.0 mi SW 3.5 mph - N/A   Clear
9:53 AM 42.1 °F 40.2 °F 28.9 °F 60% 30.46 in 10.0 mi Variable 3.5 mph - N/A   Clear
10:53 AM 46.9 °F - 27.0 °F 46% 30.44 in 10.0 mi Variable 4.6 mph - N/A   Clear
11:53 AM 50.0 °F - 28.9 °F 44% 30.43 in 10.0 mi East 9.2 mph - N/A   Clear
12:53 PM 52.0 °F - 28.0 °F 40% 30.44 in 10.0 mi Variable 6.9 mph - N/A   Clear
1:53 PM 54.0 °F - 28.0 °F 37% 30.41 in 10.0 mi ENE 12.7 mph - N/A   Partly Cloudy
2:53 PM 55.9 °F - 28.9 °F 36% 30.38 in 10.0 mi East 12.7 mph - N/A   Clear
3:53 PM 57.0 °F - 28.9 °F 34% 30.39 in 10.0 mi East 16.1 mph - N/A   Clear
4:53 PM 57.0 °F - 28.0 °F 33% 30.37 in 10.0 mi ESE 13.8 mph - N/A   Clear
5:53 PM 53.1 °F - 32.0 °F 45% 30.37 in 10.0 mi East 11.5 mph - N/A   Clear
6:53 PM 48.0 °F - 30.0 °F 50% 30.39 in 10.0 mi ESE 8.1 mph - N/A   Clear
7:53 PM 45.0 °F 38.9 °F 28.9 °F 53% 30.39 in 10.0 mi East 12.7 mph - N/A   Clear
8:53 PM 42.1 °F 36.1 °F 28.0 °F 58% 30.38 in 10.0 mi East 10.4 mph - N/A   Clear
9:53 PM 44.1 °F 37.1 °F 27.0 °F 51% 30.36 in 10.0 mi ESE 15.0 mph - N/A   Clear
10:53 PM 42.1 °F 36.6 °F 26.1 °F 53% 30.36 in 10.0 mi ESE 9.2 mph - N/A   Clear
11:53 PM 39.0 °F 35.7 °F 28.0 °F 65% 30.36 in 10.0 mi SSW 4.6 mph - N/A   Clear